TimeCDT,TemperatureF,Dew PointF,Humidity,Sea Level PressureIn,VisibilityMPH,Wind Direction,Wind SpeedMPH,Gust SpeedMPH,PrecipitationIn,Events,Conditions,WindDirDegrees,DateUTC
12:53 AM,46.0,39.0,76,29.87,10.0,ENE,5.8,-,N/A,,Clear,70,2012-11-02 05:53:00
1:53 AM,44.1,39.0,82,29.85,10.0,East,6.9,-,N/A,,Clear,80,2012-11-02 06:53:00
2:53 AM,45.0,39.9,82,29.82,10.0,East,8.1,-,N/A,,Clear,80,2012-11-02 07:53:00
3:53 AM,41.0,37.9,89,29.81,10.0,East,3.5,-,N/A,,Clear,90,2012-11-02 08:53:00
4:53 AM,37.9,36.0,93,29.81,10.0,Calm,Calm,-,N/A,,Clear,0,2012-11-02 09:53:00
5:53 AM,39.9,37.0,89,29.80,10.0,ENE,5.8,-,N/A,,Clear,70,2012-11-02 10:53:00
6:53 AM,37.0,36.0,96,29.82,10.0,East,5.8,-,N/A,,Clear,80,2012-11-02 11:53:00
7:53 AM,35.1,33.1,92,29.85,9.0,NNW,5.8,-,N/A,,Clear,340,2012-11-02 12:53:00
8:53 AM,39.0,37.9,96,29.86,6.0,NNW,5.8,-,N/A,,Clear,340,2012-11-02 13:53:00
9:53 AM,45.0,41.0,86,29.88,6.0,North,12.7,-,N/A,,Clear,350,2012-11-02 14:53:00
10:53 AM,50.0,41.0,71,29.89,8.0,NNW,11.5,-,N/A,,Clear,340,2012-11-02 15:53:00
11:53 AM,55.9,41.0,57,29.88,9.0,NNW,15.0,19.6,N/A,,Clear,340,2012-11-02 16:53:00
12:53 PM,64.0,39.0,40,29.87,10.0,North,17.3,28.8,N/A,,Clear,350,2012-11-02 17:53:00
1:53 PM,64.9,37.9,37,29.88,10.0,North,19.6,28.8,N/A,,Clear,360,2012-11-02 18:53:00
2:53 PM,64.9,39.0,39,29.89,10.0,North,19.6,-,N/A,,Clear,10,2012-11-02 19:53:00
3:53 PM,59.0,37.9,46,29.95,10.0,North,16.1,26.5,N/A,,Clear,360,2012-11-02 20:53:00
4:53 PM,57.9,39.0,49,29.98,10.0,NNE,16.1,-,N/A,,Clear,20,2012-11-02 21:53:00
6:53 PM,48.9,37.0,64,30.05,10.0,NNE,9.2,-,N/A,,Clear,20,2012-11-02 23:53:00
7:53 PM,45.0,36.0,71,30.09,10.0,NNE,6.9,-,N/A,,Clear,20,2012-11-03 00:53:00
8:53 PM,45.0,37.0,74,30.12,10.0,NNE,11.5,-,N/A,,Clear,20,2012-11-03 01:53:00
9:53 PM,41.0,36.0,82,30.12,10.0,NNE,8.1,-,N/A,,Clear,20,2012-11-03 02:53:00
10:53 PM,37.9,34.0,86,30.13,8.0,NE,5.8,-,N/A,,Clear,40,2012-11-03 03:53:00
11:53 PM,36.0,33.1,89,30.16,8.0,NW,4.6,-,N/A,,Clear,320,2012-11-03 04:53:00